Weather in Zafarabad

Uzbekistan     40°31′55″N   65°01′13″E
temp.,
°C
wind,
m/s
gust,
m/s
humid.,
%
clouds,
%
prec.,
mm/h
press.,
hPa
HPBL,
m
27 october, wed
wed2723:00+14wnw1139100 0.0 102311
02:00+13nne1141100 0.0 102311
05:00+13nne1141100 0.0 102310
08:00+13nne223799 0.0 102419
11:00+17n3230100 0.0 1025488
14:00+18n4331100 0.0 10231053
17:00+16n5534100 0.0 10231048
20:00+13nw6847100 0.0 1025373
28 october, thu
thu2823:00+11nw5661100 0.0 1026571
02:00+10nnw127194 0.3 1026453
05:00+9sw347885 0.3 1026291
08:00+7wsw6775100 0.0 1028397
11:00+9wsw6764100 0.1 10281079
14:00+10w5652100 0.0 10271539
17:00+10wnw445297 0.0 1028959
20:00+9nw3352100 0.0 1028443
29 october, fri
fri2923:00+7nne34595 0.0 102853
02:00+6ne33665 0.0 102828
05:00+6ne22685 0.0 102917
08:00+6ne34661 0.0 103099
11:00+10e11480 0.0 1029696
14:00+13w01370 0.0 1028953
17:00+14n22340 0.0 1028779
20:00+11ne46440 0.0 102885
30 october, sat
sat3023:00+10ene33460 0.0 102920
02:00+9sse22420 0.0 102910
05:00+7se22480 0.0 102910
08:00+9ene22490 0.0 103011
11:00+15ne12340 0.0 1030498
14:00+18n2122100 0.0 1028913
17:00+17n442243 0.0 102881
20:00+14ne453255 0.0 102949
31 october, sun
sun3123:00+12ne564292 0.0 102964
02:00+11ne61050100 0.0 1029139
05:00+11ne71356100 0.0 1029231
08:00+11ne81252100 0.0 1030266
11:00+15ne8938100 0.0 1030508
14:00+18ne8928100 0.0 1028739
17:00+17ne8930100 0.0 1029796
20:00+14nne7123433 0.0 1029246